Lexington Weather

Lexington, Massachusetts, USA

54°F
5/18/2024 12:20am 
  • Lexington Conditions: Clear
  • Temperature: 54.1°F / 12.3°CColder 1.5°F than last hour.
  • Dew Point: 49.8°FDecreased 0.7°Fsince last hour.
  • Relative Humidity: 85%Increased 2.0% since last hour.
  • Wind: Calm, 10-min avg: Calm, gust: None
  • Barometer: 29.96 in Steady
  • Visibility: 10 miles
  • Rain Today: 0.00 in
  •   

Regional Weather Roundup
for Boston, MA

        
000
ASUS41 KBOX 111910
RWRBOX

REGIONAL WEATHER ROUNDUP
NATIONAL WEATHER SERVICE BOSTON/NORTON MA
300 PM EDT SAT MAY 11 2024

NOTE:  "FAIR" INDICATES FEW OR NO CLOUDS BELOW 12,000 FEET WITH NO 
SIGNIFICANT WEATHER AND/OR OBSTRUCTIONS TO VISIBILITY.

MAZALL-112000-
EASTERN MASSACHUSETTS
  
CITY           SKY/WX    TMP DP  RH WIND       PRES   REMARKS
BOSTON         PTSUNNY   52  42  69 E13       29.87F                  
BEVERLY        CLOUDY    50  41  71 SE13      29.86F                  
LAWRENCE       PTSUNNY   55  40  56 NE9       29.87F                  
BEDFORD        PTSUNNY   55  42  61 E13G23    29.84F                  
NORWOOD        PTSUNNY   56  38  50 NE12      29.85F                  
MARSHFIELD     PTSUNNY   52  39  62 NE13      29.87F                  
PLYMOUTH       MOSUNNY   53  39  59 NE13G22   29.85F                  
TAUNTON        CLOUDY    56  36  47 E10       29.84F                  
NEW BEDFORD    CLOUDY    57  40  52 NE16      29.83F                  
$$

MAZALL-112000-
CAPE COD AND THE ISLANDS
  
CITY           SKY/WX    TMP DP  RH WIND       PRES   REMARKS
FALMOUTH       NOT AVBL                                               
HYANNIS        CLOUDY    51  40  65 NE18G26   29.83S                  
CHATHAM        CLOUDY    50  40  68 NE14G22   29.85S                  
PROVINCETOWN   CLOUDY    51  44  77 NE15      29.88S                  
NANTUCKET      CLOUDY    51  42  71 NE18G28   29.83S                  
MARTHAS VNYRD  CLOUDY    53  41  63 NE15G25   29.83F                  
$$
 
MAZALL-112000-
CENTRAL AND WESTERN MASSACHUSETTS
  
CITY           SKY/WX    TMP DP  RH WIND       PRES   REMARKS
WORCESTER      CLOUDY    54  36  50 E10       29.82F                  
FITCHBURG      CLOUDY    57  37  47 E13       29.84S                  
ORANGE         CLOUDY    59  34  39 E7        29.82S                  
SPRINGFIELD    PTSUNNY   61  34  36 CALM      29.78S                  
WESTFIELD      PTSUNNY   62  37  39 E9        29.80S                  
NORTH ADAMS    CLOUDY    61  35  37 VRB3      29.78F                  
PITTSFIELD     CLOUDY    58  35  42 SW5       29.77F                  
$$
 
RIZALL-112000-
RHODE ISLAND
  
CITY           SKY/WX    TMP DP  RH WIND       PRES   REMARKS
PROVIDENCE     MOSUNNY   57  41  55 E14       29.83F                  
NEWPORT        CLOUDY    54  39  57 NE13      29.83F                  
BLOCK ISLAND   SUNNY     52  41  66 NE15G23   29.84F                  
SMITHFIELD     PTSUNNY   58  41  53 NE9G17    29.83F                  
WESTERLY       CLOUDY    58  38  47 NE15G23   29.82F                  
$$
 
CTZALL-112000-
CONNECTICUT
  
CITY           SKY/WX    TMP DP  RH WIND       PRES   REMARKS
BRADLEY INTL   PTSUNNY   63  36  36 VRB3      29.80F                  
HARTFORD       CLOUDY    60  36  40 SE8       29.80F                  
PLAINVILLE     CLOUDY    61  37  40 S12       29.80S                  
BRIDGEPORT     CLOUDY    57  37  47 VRB5      29.83F                  
DANBURY        CLOUDY    60  39  45 S9        29.81F                  
GROTON         PTSUNNY   53  43  68 SE9       29.83R                  
NEW HAVEN      CLOUDY    59  45  59 S9        29.84S                  
CHESTER        PTSUNNY   57  39  51 S8        29.83S                  
MERIDEN        CLOUDY    58  40  51 S9        29.82S                  
WILLIMANTIC    CLOUDY    58  36  43 NE7       29.84R                  
OXFORD         CLOUDY    56  41  57 S10       29.82S                  
$$

MEZ002-015-021-024-NHZ003-005-008-011-012-014-VTZ005-008-112000-
NORTHERN NEW ENGLAND
  
CITY           SKY/WX    TMP DP  RH WIND       PRES   REMARKS
PORTLAND ME    PTSUNNY   53  40  61 VRB7G16   29.89F                  
BANGOR ME      CLOUDY    59  35  40 NE8       29.86F                  
CONCORD NH     PTSUNNY   56  38  50 VRB7      29.84F                  
MANCHESTER NH  PTSUNNY   59  37  44 VRB7G21   29.83F                  
NASHUA NH      PTSUNNY   57  39  51 E14       29.85F                  
PORTSMOUTH NH  PTSUNNY   53  41  63 E10       29.87F                  
JAFFREY NH     CLOUDY    56  35  45 VRB3      29.82F                  
KEENE NH       CLOUDY    59  35  40 S6        29.80F                  
BURLINGTON VT  PTSUNNY   58  46  64 W13       29.77S                  
MT. WASHINGTON FOG       27  27 100 SE12        N/A  VSB 1/16WCI  16  
$$

NYZ052-076-112000-
EASTERN NEW YORK
  
CITY           SKY/WX    TMP DP  RH WIND       PRES   REMARKS
ALBANY         PTSUNNY   64  40  41 SE6       29.77F                  
NEW YORK CITY  PTSUNNY   58  42  55 S12G20    29.84S                  
$$
 
ANZALL-112000-
MARINE OBSERVATIONS
  
STATION/POSITION TIME  TEMP    WIND        PRES    VSBY  WAVE
                       AIR SEA DIR/SP/G                  HT/PER
                 (UTC) (F)     (DEG/KT/KT) (MB)    (MI)  (FT/S)
BOSTON BUOY      1850   48 50   60/ 10/ 12 1011.8F         3/ 7
BUZZARDS BAY     1800   49      40/ 17/ 19 1010.9S
NANTUCKET SOUND  1850   49 54   50/ 17/ 19 1009.8F         3/ 4
MASS BAY-STELLWA NOT AVBL
ISLE OF SHOALS   1800   48      80/ 10/ 11 1011.8R
S OF BLOCK IS    1856      49                N/A           4/ 5
$$

......................KEY.........................
  SKY/WX - SKY CONDITION/PRESENT WEATHER
  TMP    - TEMPERATURE IN FAHRENHEIT
  DWPT   - DEWPOINT IN FAHRENHEIT
  RH     - RELATIVE HUMIDITY IN PERCENT
  WIND   - DIRECTION AND SPEED IN MPH
  PRES   - MEAN SEA LEVEL PRESSURE IN INCHES OF HG
  WCI    - WIND CHILL INDEX
  VSB    - VISIBILITY IN MILES
  HX     - HEAT INDEX
  TC     - TEMPERATURE IN CELSIUS
  VRB    - VARIABLE WIND DIRECTION
  N/A    - NOT AVAILABLE
  
      

Other recent Regional Weather Roundups

Fri May 17, 11:10pm EDT

Fri May 17, 10:10pm EDT

Fri May 17, 9:10pm EDT

Fri May 17, 8:10pm EDT

Fri May 17, 7:10pm EDT

Fri May 17, 6:10pm EDT

Fri May 17, 5:10pm EDT

Fri May 17, 4:10pm EDT

Fri May 17, 3:10pm EDT

Fri May 17, 2:10pm EDT

Fri May 17, 1:10pm EDT

Fri May 17, 12:10pm EDT

Fri May 17, 11:10am EDT

Fri May 17, 10:10am EDT

Fri May 17, 9:10am EDT

Fri May 17, 8:10am EDT

Fri May 17, 7:10am EDT

Fri May 17, 6:10am EDT

Fri May 17, 5:10am EDT

Fri May 17, 4:10am EDT

Fri May 17, 3:10am EDT

Fri May 17, 2:10am EDT

Fri May 17, 1:10am EDT

Fri May 17, 12:10am EDT

Thu May 16, 11:10pm EDT

Thu May 16, 10:10pm EDT

Thu May 16, 9:10pm EDT

Thu May 16, 8:10pm EDT

Thu May 16, 7:10pm EDT

Thu May 16, 6:10pm EDT

Thu May 16, 5:10pm EDT

Thu May 16, 4:10pm EDT

Thu May 16, 3:10pm EDT

Thu May 16, 2:10pm EDT

Thu May 16, 1:10pm EDT

Thu May 16, 12:10pm EDT

Thu May 16, 11:10am EDT

Thu May 16, 10:10am EDT

Thu May 16, 9:10am EDT

Thu May 16, 8:10am EDT

Thu May 16, 7:10am EDT

Thu May 16, 6:10am EDT

Thu May 16, 5:10am EDT

Thu May 16, 4:10am EDT

Thu May 16, 3:10am EDT

Thu May 16, 2:10am EDT

Thu May 16, 1:10am EDT

Thu May 16, 12:10am EDT

Wed May 15, 11:10pm EDT

Wed May 15, 10:10pm EDT

Wed May 15, 9:10pm EDT

Wed May 15, 8:10pm EDT

Wed May 15, 7:10pm EDT

Wed May 15, 6:10pm EDT

Wed May 15, 5:10pm EDT

Wed May 15, 4:10pm EDT

Wed May 15, 3:10pm EDT

Wed May 15, 2:10pm EDT

Wed May 15, 1:10pm EDT

Wed May 15, 12:10pm EDT

Wed May 15, 11:10am EDT

Wed May 15, 10:10am EDT

Wed May 15, 9:10am EDT

Wed May 15, 8:10am EDT

Wed May 15, 7:10am EDT

Wed May 15, 6:10am EDT

Wed May 15, 5:10am EDT

Wed May 15, 4:10am EDT

Wed May 15, 3:10am EDT

Wed May 15, 2:10am EDT

Wed May 15, 1:10am EDT

Wed May 15, 12:10am EDT

Tue May 14, 11:10pm EDT

Tue May 14, 10:10pm EDT

Tue May 14, 9:10pm EDT

Tue May 14, 8:10pm EDT

Tue May 14, 7:10pm EDT

Tue May 14, 6:10pm EDT

Tue May 14, 5:10pm EDT

Tue May 14, 4:10pm EDT

Tue May 14, 3:10pm EDT

Tue May 14, 2:10pm EDT

Tue May 14, 1:10pm EDT

Tue May 14, 12:10pm EDT

Tue May 14, 11:10am EDT

Tue May 14, 10:10am EDT

Tue May 14, 9:10am EDT

Tue May 14, 8:10am EDT

Tue May 14, 7:10am EDT

Tue May 14, 6:10am EDT

Tue May 14, 5:10am EDT

Tue May 14, 4:10am EDT

Tue May 14, 3:10am EDT

Tue May 14, 2:10am EDT

Tue May 14, 1:10am EDT

Tue May 14, 12:10am EDT

Mon May 13, 11:10pm EDT

Mon May 13, 10:10pm EDT

Mon May 13, 9:10pm EDT

Mon May 13, 8:10pm EDT

Mon May 13, 7:10pm EDT

Mon May 13, 6:10pm EDT

Mon May 13, 5:10pm EDT

Mon May 13, 4:10pm EDT

Mon May 13, 3:10pm EDT

Mon May 13, 2:10pm EDT

Mon May 13, 1:10pm EDT

Mon May 13, 12:10pm EDT

Mon May 13, 11:10am EDT

Mon May 13, 10:10am EDT

Mon May 13, 9:10am EDT

Mon May 13, 8:10am EDT

Mon May 13, 7:10am EDT

Mon May 13, 6:10am EDT

Mon May 13, 5:10am EDT

Mon May 13, 4:10am EDT

Mon May 13, 3:10am EDT

Mon May 13, 2:10am EDT

Mon May 13, 1:10am EDT

Mon May 13, 12:10am EDT

Sun May 12, 11:10pm EDT

Sun May 12, 10:10pm EDT

Sun May 12, 9:10pm EDT

Sun May 12, 8:10pm EDT

Sun May 12, 7:10pm EDT

Sun May 12, 6:10pm EDT

Sun May 12, 5:10pm EDT

Sun May 12, 4:10pm EDT

Sun May 12, 3:10pm EDT

Sun May 12, 2:10pm EDT

Sun May 12, 1:10pm EDT

Sun May 12, 12:10pm EDT

Sun May 12, 11:10am EDT

Sun May 12, 10:10am EDT

Sun May 12, 9:10am EDT

Sun May 12, 8:10am EDT

Sun May 12, 7:10am EDT

Sun May 12, 6:10am EDT

Sun May 12, 5:10am EDT

Sun May 12, 4:10am EDT

Sun May 12, 3:10am EDT

Sun May 12, 2:10am EDT

Sun May 12, 1:10am EDT

Sun May 12, 12:10am EDT

Sat May 11, 11:10pm EDT

Sat May 11, 10:10pm EDT

Sat May 11, 9:10pm EDT

Sat May 11, 8:10pm EDT

Sat May 11, 7:10pm EDT

Sat May 11, 6:10pm EDT

Sat May 11, 5:10pm EDT

Sat May 11, 4:10pm EDT

Sat May 11, 2:10pm EDT

Sat May 11, 1:10pm EDT

Sat May 11, 12:10pm EDT

Sat May 11, 11:10am EDT

Sat May 11, 10:10am EDT

Sat May 11, 9:10am EDT

Sat May 11, 8:10am EDT

Sat May 11, 7:10am EDT

Sat May 11, 6:10am EDT

Sat May 11, 5:10am EDT

Sat May 11, 4:10am EDT

Sat May 11, 3:10am EDT

Sat May 11, 2:10am EDT

Sat May 11, 1:10am EDT

Sat May 11, 12:10am EDT